Location: Hamilton
(43.2500°N, 79.8330°W)
Time: 10:15:21
(UTC-04:00)

Amateur Radio Satellites - All Passes

Search period start: 01 October 2014 09:45
Search period end: 02 October 2014 09:45
Location: Hamilton, 43.2500°N, 79.8330°W

Satellite Date Start Highest point End Downlink Frequencies (MHz)
Time Altitude Azimuth
UKube-1 01 Oct 09:48:55 09:51:02 13° 91° (E) 09:53:08 145.840 MHz, 145.915 MHz
RS-15 01 Oct 10:00:43 10:10:46 38° 34° (NNE) 10:21:05 29.354 - 29.394 USB, Beacon 29.352 USB
ZACube-1 01 Oct 10:29:07 10:31:13 13° 89° (E) 10:33:19 437.345 MHz
Sapphire 01 Oct 10:43:16 10:48:39 68° 303° (WNW) 10:54:05 437.095 MHz 1200 baud AX-25 AFSK
HO-68 01 Oct 10:50:39 10:57:52 81° 288° (WNW) 11:05:03 435.675 MHz FM
Oscar 11 01 Oct 10:53:38 10:57:54 54° 100° (E) 11:02:07 145.825 FM, Beacon 2401.500 USB
PCSat 01 Oct 11:09:18 11:14:24 41° 308° (NW) 11:19:33 145.825 MHz
FUNcube-1 01 Oct 11:18:23 11:22:44 42° 98° (E) 11:26:58 145.950 - 145.970 MHz USB
UKube-1 01 Oct 11:23:17 11:27:36 60° 287° (WNW) 11:31:54 145.840 MHz, 145.915 MHz
ZACube-1 01 Oct 12:03:33 12:08:06 64° 286° (WNW) 12:12:30 437.345 MHz
RS-15 01 Oct 12:13:14 12:24:23 82° 240° (WSW) 12:36:00 29.354 - 29.394 USB, Beacon 29.352 USB
JAS-1B 01 Oct 12:29:36 12:32:51 14° 56° (NE) 12:35:54 435.800 - 435.900 CW/SSB
Sapphire 01 Oct 12:30:08 12:33:08 15° 324° (NW) 12:36:08 437.095 MHz 1200 baud AX-25 AFSK
Oscar 11 01 Oct 12:31:04 12:33:39 16° 297° (WNW) 12:36:13 145.825 FM, Beacon 2401.500 USB
Oscar 16 01 Oct 12:39:24 12:42:48 18° 61° (ENE) 12:46:12 437.025 USB, Beacon 2401.1428
HO-68 01 Oct 12:40:03 12:44:31 18° 308° (NW) 12:48:59 435.675 MHz FM
FUNcube-1 01 Oct 12:55:26 12:58:49 21° 295° (WNW) 13:02:09 145.950 - 145.970 MHz USB
PCSat 01 Oct 12:59:00 12:59:23 10° 331° (NNW) 12:59:46 145.825 MHz
Oscar 19 01 Oct 13:35:27 13:40:28 52° 71° (ENE) 13:45:31 437.125 CW, 437.150 USB
TMSAT-1 01 Oct 13:45:59 13:47:37 11° 56° (NE) 13:49:15 436.925 FM
ITAMSAT 1 01 Oct 13:48:35 13:53:04 31° 66° (ENE) 13:57:34 435.822 SSB
Uribyol 2 01 Oct 13:49:15 13:53:50 33° 66° (ENE) 13:58:27 436.500 FM
Saudisat 1A 01 Oct 13:58:15 14:01:54 26° 114° (ESE) 14:05:33 436.775 MHz
AO-7 01 Oct 14:02:43 14:05:41 12° 40° (NE) 14:08:39 29.400 - 29.500 MHz
JAS-1B 01 Oct 14:15:09 14:22:44 76° 73° (ENE) 14:29:05 435.800 - 435.900 CW/SSB
Oscar 16 01 Oct 14:16:28 14:21:37 66° 258° (WSW) 14:26:49 437.025 USB, Beacon 2401.1428
AO-Echo 01 Oct 14:23:42 14:28:21 72° 74° (ENE) 14:33:05 ?
AO-27 01 Oct 14:26:20 14:31:28 67° 73° (ENE) 14:36:38 436.795 MHz FM
RS-15 01 Oct 14:27:39 14:35:03 21° 260° (W) 14:42:39 29.354 - 29.394 USB, Beacon 29.352 USB
Gurwin Techsat 1B 01 Oct 14:53:03 14:58:14 58° 72° (ENE) 15:03:26 435.225 FM
Oscar 19 01 Oct 15:16:19 15:20:07 20° 268° (W) 15:23:56 437.125 CW, 437.150 USB
TMSAT-1 01 Oct 15:21:21 15:26:38 76° 74° (ENE) 15:31:56 436.925 FM
ITAMSAT 1 01 Oct 15:27:45 15:32:28 35° 263° (W) 15:37:13 435.822 SSB
Uribyol 2 01 Oct 15:28:38 15:33:16 33° 264° (W) 15:37:57 436.500 FM
MaSat-1 01 Oct 15:30:33 15:33:59 73° 62° (ENE) 15:36:55 437.345 MHz
Saudisat 1A 01 Oct 15:37:12 15:41:18 38° 312° (NW) 15:45:27 436.775 MHz
Uosat F 01 Oct 15:46:19 15:50:14 24° 64° (ENE) 15:54:10 435.120 FM
AO-7 01 Oct 15:48:39 15:56:30 50° 62° (ENE) 16:04:22 29.400 - 29.500 MHz
AO-Echo 01 Oct 16:05:51 16:07:41 12° 271° (W) 16:09:32 ?
AO-27 01 Oct 16:08:26 16:11:28 16° 270° (W) 16:14:31 436.795 MHz FM
JAS-1B 01 Oct 16:08:44 16:13:45 19° 267° (W) 16:18:19 435.800 - 435.900 CW/SSB
KITSAT 1 01 Oct 16:10:28 16:15:49 20° 102° (ESE) 16:21:09 435.175 FM
JAS-2 01 Oct 16:27:10 16:28:25 11° 53° (NE) 16:29:41 435.800 - 435.900 CW/SSB, 435.910 FM
Gurwin Techsat 1B 01 Oct 16:34:53 16:38:34 19° 269° (W) 16:42:17 435.225 FM
TMSAT-1 01 Oct 17:04:26 17:07:08 14° 271° (W) 17:09:50 436.925 FM
Uosat F 01 Oct 17:23:59 17:28:45 44° 261° (W) 17:33:33 435.120 FM
OPAL 01 Oct 17:32:53 17:37:02 25° 96° (E) 17:41:07 ?
AO-7 01 Oct 17:41:46 17:49:24 40° 261° (W) 17:57:06 29.400 - 29.500 MHz
Sapphire 01 Oct 17:47:32 17:51:46 23° 43° (NE) 17:55:59 437.095 MHz 1200 baud AX-25 AFSK
Oscar 10/S400 01 Oct 17:47:36 18:05:39 49° 161° (SSE) 18:58:32 145.825 - 145.975 CW/USB, Beacon 145.810 USB
Hamsat 01 Oct 17:54:08 17:58:15 44° 72° (ENE) 18:02:21 145.90 MHz
KITSAT 1 01 Oct 18:02:01 18:10:07 90° 300° (WNW) 18:18:16 435.175 FM
JAS-2 01 Oct 18:07:18 18:12:27 77° 74° (ENE) 18:17:56 435.800 - 435.900 CW/SSB, 435.910 FM
PCSat 01 Oct 18:12:44 18:17:41 34° 49° (NE) 18:22:35 145.825 MHz
AO-40 01 Oct 18:47:16 00:27:00 37° 186° (S) 05:51:00 Beacon 2401.320
SO-50 01 Oct 19:00:51 19:04:20 23° 112° (ESE) 19:07:53 436.795 FM
OPAL 01 Oct 19:11:16 19:16:04 42° 294° (WNW) 19:20:46 ?
Sapphire 01 Oct 19:30:18 19:35:42 69° 243° (WSW) 19:41:05 437.095 MHz 1200 baud AX-25 AFSK
Hamsat 01 Oct 19:31:31 19:34:25 17° 268° (W) 19:37:18 145.90 MHz
HO-68 01 Oct 19:35:35 19:40:09 19° 52° (NE) 19:44:43 435.675 MHz FM
SO-67 01 Oct 19:43:20 19:46:46 77° 258° (WSW) 19:50:14 435.3500 MHz FM
PCSat 01 Oct 19:56:07 20:01:08 39° 248° (WSW) 20:06:07 145.825 MHz
JAS-2 01 Oct 19:56:14 19:58:24 12° 273° (W) 20:00:36 435.800 - 435.900 CW/SSB, 435.910 FM
KITSAT 1 01 Oct 19:59:56 20:06:37 28° 324° (NW) 20:13:21 435.175 FM
STRAND 1 01 Oct 20:13:23 20:18:33 75° 103° (ESE) 20:23:42 ?
SO-50 01 Oct 20:40:16 20:44:36 45° 311° (NW) 20:49:03 436.795 FM
UKube-1 01 Oct 20:45:46 20:48:09 15° 62° (ENE) 20:50:31 145.840 MHz, 145.915 MHz
UOSAT-12 01 Oct 21:04:32 21:08:42 34° 115° (ESE) 21:12:57 437.025 FM, 437.400 FM
HO-68 01 Oct 21:19:42 21:26:50 84° 72° (ENE) 21:34:02 435.675 MHz FM
ZACube-1 01 Oct 21:26:58 21:29:16 14° 61° (ENE) 21:31:34 437.345 MHz
Oscar 11 01 Oct 21:49:30 21:53:41 48° 72° (ENE) 21:57:54 145.825 FM, Beacon 2401.500 USB
STRAND 1 01 Oct 21:54:08 21:57:07 16° 301° (WNW) 22:00:06 ?
KITSAT 1 01 Oct 22:01:33 22:05:23 14° 354° (N) 22:09:14 435.175 FM
FUNcube-1 01 Oct 22:15:30 22:19:44 39° 70° (ENE) 22:24:02 145.950 - 145.970 MHz USB
ISS 01 Oct 22:17:03 22:20:06 34° 139° (SE) 22:23:09 145.800 FM
UKube-1 01 Oct 22:19:35 22:23:51 60° 258° (WSW) 22:28:10 145.840 MHz, 145.915 MHz
Saudisat 1A 01 Oct 22:23:20 22:27:18 31° 46° (NE) 22:31:15 436.775 MHz
SO-50 01 Oct 22:25:36 22:26:23 10° 332° (NNW) 22:27:10 436.795 FM
UOSAT-12 01 Oct 22:44:37 22:48:50 33° 314° (NW) 22:53:08 437.025 FM, 437.400 FM
ZACube-1 01 Oct 23:00:31 23:05:03 72° 258° (WSW) 23:09:41 437.345 MHz
HO-68 01 Oct 23:10:43 23:15:21 18° 270° (W) 23:20:02 435.675 MHz FM
Oscar 11 01 Oct 23:27:23 23:30:08 16° 269° (W) 23:32:53 145.825 FM, Beacon 2401.500 USB
FUNcube-1 01 Oct 23:52:44 23:56:15 22° 267° (W) 23:59:50 145.950 - 145.970 MHz USB
ISS 01 Oct 23:53:38 23:56:46 38° 336° (NNW) 23:59:55 145.800 FM
KITSAT 1 01 Oct 23:59:14 00:04:43 19° 25° (NNE) 00:10:10 435.175 FM
Saudisat 1A 02 Oct 00:02:55 00:06:52 33° 244° (WSW) 00:10:48 436.775 MHz
RS-15 02 Oct 00:35:37 00:38:24 11° 94° (E) 00:41:10 29.354 - 29.394 USB, Beacon 29.352 USB
ISS 02 Oct 01:31:38 01:34:07 19° 356° (N) 01:36:36 145.800 FM
Oscar 19 02 Oct 01:47:14 01:50:29 17° 91° (E) 01:53:43 437.125 CW, 437.150 USB
KITSAT 1 02 Oct 01:54:16 02:02:11 54° 50° (NE) 02:10:02 435.175 FM
JAS-1B 02 Oct 02:00:04 02:03:08 14° 91° (E) 02:06:18 435.800 - 435.900 CW/SSB
Oscar 16 02 Oct 02:27:17 02:32:09 40° 98° (E) 02:36:58 437.025 USB, Beacon 2401.1428
AO-Echo 02 Oct 02:30:04 02:33:58 22° 93° (E) 02:37:56 ?
RS-15 02 Oct 02:37:30 02:48:14 61° 115° (ESE) 02:58:51 29.354 - 29.394 USB, Beacon 29.352 USB
AO-27 02 Oct 02:39:03 02:43:06 22° 93° (E) 02:47:07 436.795 MHz FM
ISS 02 Oct 03:08:43 03:11:36 26° 17° (NNE) 03:14:28 145.800 FM
Gurwin Techsat 1B 02 Oct 03:08:58 03:12:58 21° 92° (E) 03:16:56 435.225 FM
Oscar 19 02 Oct 03:25:10 03:30:15 62° 288° (WNW) 03:35:17 437.125 CW, 437.150 USB
SO-50 02 Oct 03:30:23 03:34:43 32° 46° (NE) 03:39:05 436.795 FM
TMSAT-1 02 Oct 03:36:38 03:41:10 28° 95° (E) 03:45:40 436.925 FM
ITAMSAT 1 02 Oct 03:38:54 03:44:09 77° 103° (ESE) 03:49:22 435.822 SSB
Uribyol 2 02 Oct 03:39:32 03:44:48 82° 104° (ESE) 03:50:02 436.500 FM
JAS-1B 02 Oct 03:48:44 03:54:25 75° 287° (WNW) 04:00:33 435.800 - 435.900 CW/SSB
KITSAT 1 02 Oct 03:50:04 03:57:20 39° 251° (WSW) 04:04:35 435.175 FM
AO-7 02 Oct 03:52:10 03:55:03 12° 86° (E) 03:57:55 29.400 - 29.500 MHz
UOSAT-12 02 Oct 03:55:21 03:55:54 10° 27° (NNE) 03:56:27 437.025 FM, 437.400 FM
Oscar 16 02 Oct 04:07:03 04:11:18 27° 295° (WNW) 04:15:32 437.025 USB, Beacon 2401.1428
AO-Echo 02 Oct 04:08:08 04:12:56 47° 289° (WNW) 04:17:51 ?
AO-27 02 Oct 04:17:50 04:22:51 48° 290° (WNW) 04:27:51 436.795 MHz FM
ISS 02 Oct 04:45:14 04:48:33 73° 215° (SW) 04:51:51 145.800 FM
Gurwin Techsat 1B 02 Oct 04:48:04 04:53:14 52° 289° (WNW) 04:58:21 435.225 FM
OPAL 02 Oct 04:48:16 04:53:19 52° 68° (ENE) 04:58:22 ?
RS-15 02 Oct 04:50:34 05:00:59 46° 319° (NW) 05:11:27 29.354 - 29.394 USB, Beacon 29.352 USB
SO-50 02 Oct 05:10:53 05:15:20 38° 244° (WSW) 05:19:49 436.795 FM
MaSat-1 02 Oct 05:14:25 05:18:23 26° 107° (ESE) 05:22:14 437.345 MHz
TMSAT-1 02 Oct 05:16:15 05:21:10 39° 292° (WNW) 05:26:04 436.925 FM
JAS-2 02 Oct 05:16:53 05:18:48 11° 86° (E) 05:20:45 435.800 - 435.900 CW/SSB, 435.910 FM
ITAMSAT 1 02 Oct 05:19:57 05:23:00 16° 301° (WNW) 05:26:03 435.822 SSB
Uribyol 2 02 Oct 05:20:46 05:23:35 15° 302° (WNW) 05:26:24 436.500 FM
Uosat F 02 Oct 05:30:20 05:35:15 51° 100° (E) 05:40:09 435.120 FM
UOSAT-12 02 Oct 05:32:49 05:37:20 42° 49° (NE) 05:41:46 437.025 FM, 437.400 FM
AO-7 02 Oct 05:41:04 05:49:20 67° 105° (ESE) 05:57:35 29.400 - 29.500 MHz
JAS-1B 02 Oct 05:42:46 05:44:12 11° 306° (NW) 05:45:38 435.800 - 435.900 CW/SSB
STRAND 1 02 Oct 05:53:46 05:56:54 17° 60° (ENE) 06:00:04 ?
OPAL 02 Oct 06:28:32 06:32:27 21° 265° (W) 06:36:24 ?
MaSat-1 02 Oct 06:50:10 06:54:42 40° 302° (WNW) 06:58:59 437.345 MHz
JAS-2 02 Oct 06:58:02 07:04:44 67° 102° (ESE) 07:12:10 435.800 - 435.900 CW/SSB, 435.910 FM
RS-15 02 Oct 07:08:39 07:17:03 24° 352° (N) 07:25:34 29.354 - 29.394 USB, Beacon 29.352 USB
Uosat F 02 Oct 07:09:56 07:13:40 21° 297° (WNW) 07:17:24 435.120 FM
UOSAT-12 02 Oct 07:13:22 07:17:17 26° 247° (WSW) 07:21:07 437.025 FM, 437.400 FM
Hamsat 02 Oct 07:14:27 07:18:40 79° 102° (ESE) 07:22:50 145.90 MHz
STRAND 1 02 Oct 07:30:28 07:35:32 69° 258° (WSW) 07:40:39 ?
AO-7 02 Oct 07:34:37 07:41:33 31° 305° (NW) 07:48:30 29.400 - 29.500 MHz
Sapphire 02 Oct 08:33:21 08:35:36 13° 102° (ESE) 08:37:50 437.095 MHz 1200 baud AX-25 AFSK
SO-67 02 Oct 08:38:40 08:42:07 73° 284° (WNW) 08:45:33 435.3500 MHz FM
JAS-2 02 Oct 08:44:04 08:49:21 26° 298° (WNW) 08:55:05 435.800 - 435.900 CW/SSB, 435.910 FM
HO-68 02 Oct 08:48:42 08:52:13 14° 87° (E) 08:55:43 435.675 MHz FM
Hamsat 02 Oct 08:53:10 08:53:59 11° 300° (WNW) 08:54:47 145.90 MHz
PCSat 02 Oct 08:56:33 09:00:43 23° 107° (ESE) 09:04:54 145.825 MHz
RS-15 02 Oct 09:24:30 09:34:05 32° 28° (NNE) 09:43:54 29.354 - 29.394 USB, Beacon 29.352 USB
